Boothville, LA

3:32 AM CDT on June 26, 2017 (GMT -0500)
Boothville

Weather History for KBVE - August, 2014

Change the Weather History Date:

Friday, August 22, 2014

  Actual Average (KAXO) Record (KAXO)
Temperature  
Mean Temperature 86 °F -  
Max Temperature 91 °F 84 °F 93 °F (2015)
Min Temperature 81 °F 81 °F 78 °F (2003)
Cooling Degree Days 21    
Growing Degree Days 36 (Base 50)    
Moisture  
Dew Point 76 °F    
Average Humidity 73    
Maximum Humidity 91    
Minimum Humidity 54    
Precipitation  
Precipitation 0.00 in - - ()
Sea Level Pressure  
Sea Level Pressure 30.08 in    
Wind  
Wind Speed 3 mph (NNE)    
Max Wind Speed 7 mph    
Max Gust Speed -    
Visibility 10 miles    
Events      
Averages and records for this station are not official NWS values.
T = Trace of Precipitation, MM = Missing Value Source: NWS Daily Summary

Daily Weather History Graph

Daily Weather History Graph

Search for Another Location

Airport or City:

Trip Planner

Search our weather history database for the weather conditions in past years. The results will help you decide how hot, cold, wet, or windy it might be!

Date:

Astronomy

Aug. 22, 2014 Rise Set
Actual Time 6:29 AM CDT 7:30 PM CDT
Civil Twilight 6:05 AM CDT 7:55 PM CDT
Nautical Twilight 5:36 AM CDT 8:24 PM CDT
Astronomical Twilight 5:06 AM CDT 8:54 PM CDT
Moon 3:58 AM CDT (8/22) 5:34 PM CDT (8/22)
Length of Visible Light 13h 49m
Length of Day
13h 00m
Waning Crescent, 7% of the Moon is Illuminated
Aug 22
Waning Crescent
Aug 25
New
Sep 2
First Quarter
Sep 8
Full
Sep 15
Last Quarter

Hourly Weather History & Observations

Time (CDT) Temp. Heat Index Dew Point Humidity Pressure Visibility Wind Dir Wind Speed Gust Speed Precip Events Conditions
12:51 AM 82.0 °F 90.2 °F 77.0 °F 85% 30.10 in 10.0 mi Calm Calm - N/A   Clear
1:51 AM 81.0 °F 87.9 °F 77.0 °F 88% 30.08 in 10.0 mi Calm Calm - N/A   Clear
2:51 AM 81.0 °F 87.9 °F 77.0 °F 88% 30.07 in 10.0 mi Calm Calm - N/A   Clear
3:51 AM 81.0 °F 88.6 °F 78.1 °F 91% 30.07 in 10.0 mi NW 3.5 mph - N/A   Clear
4:51 AM 82.0 °F 91.0 °F 78.1 °F 88% 30.08 in 10.0 mi NNW 3.5 mph - N/A   Clear
5:44 AM 82.0 °F 91.6 °F 79.0 °F 90% 30.09 in 10.0 mi NNW 3.5 mph - N/A   Mostly Cloudy
5:51 AM 82.0 °F 91.6 °F 79.0 °F 90% 30.09 in 10.0 mi NNW 4.6 mph - N/A   Scattered Clouds
6:51 AM 82.0 °F 91.0 °F 78.1 °F 88% 30.11 in 10.0 mi NW 4.6 mph - N/A   Clear
7:51 AM 84.0 °F 94.8 °F 78.1 °F 82% 30.12 in 10.0 mi NNW 5.8 mph - N/A   Clear
8:51 AM 84.9 °F 94.1 °F 75.9 °F 74% 30.12 in 10.0 mi NNW 6.9 mph - N/A   Clear
9:51 AM 87.1 °F 97.3 °F 75.9 °F 69% 30.12 in 10.0 mi North 4.6 mph - N/A   Clear
10:51 AM 88.0 °F 97.5 °F 75.0 °F 65% 30.13 in 10.0 mi Variable 5.8 mph - N/A   Clear
11:12 AM 89.1 °F 99.1 °F 75.0 °F 63% 30.13 in 8.0 mi Variable 4.6 mph - N/A   Partly Cloudy
11:51 AM 89.1 °F 97.0 °F 73.0 °F 59% 30.13 in 10.0 mi North 6.9 mph - N/A   Clear
12:51 PM 90.0 °F 101.3 °F 75.9 °F 63% 30.12 in 10.0 mi North 5.8 mph - N/A   Clear
1:51 PM 91.0 °F 102.9 °F 75.9 °F 61% 30.10 in 10.0 mi ENE 5.8 mph - N/A   Clear
2:51 PM 91.0 °F 102.9 °F 75.9 °F 61% 30.08 in 10.0 mi NE 5.8 mph - N/A   Clear
3:51 PM 91.0 °F 101.6 °F 75.0 °F 59% 30.06 in 10.0 mi Variable 4.6 mph - N/A   Clear
4:51 PM 91.0 °F 99.3 °F 73.0 °F 55% 30.04 in 10.0 mi ENE 4.6 mph - N/A   Clear
5:51 PM 90.0 °F 96.4 °F 71.1 °F 54% 30.03 in 10.0 mi ENE 3.5 mph - N/A   Clear
6:51 PM 88.0 °F 94.7 °F 72.0 °F 59% 30.03 in 10.0 mi ESE 3.5 mph - N/A   Clear
7:51 PM 86.0 °F 93.0 °F 73.0 °F 65% 30.03 in 10.0 mi SE 3.5 mph - N/A   Clear
8:51 PM 84.0 °F 91.2 °F 73.9 °F 72% 30.03 in 10.0 mi SE 3.5 mph - N/A   Clear
9:51 PM 82.9 °F 90.8 °F 75.9 °F 79% 30.04 in 10.0 mi South 3.5 mph - N/A   Clear
10:51 PM 84.0 °F 92.6 °F 75.9 °F 76% 30.04 in 10.0 mi South 5.8 mph - N/A   Clear
11:51 PM 84.9 °F 94.1 °F 75.9 °F 74% 30.04 in 10.0 mi SSW 6.9 mph - N/A   Clear